Location: La Fredeussais
(48.1780°N, 1.3980°W)
Time: 02:58:01
(UTC+00:00)

Envisat - Pass Details

Date: 05 August 2021
Orbit: 764 x 766 km, 98.2° (Epoch: 17 September)

Event Time Altitude Azimuth Distance (km) Brightness Sun altitude
Rises 03:54:37 0° 31° (NNE) 3,244 7.7 -8.2°
Reaches altitude 10° 03:58:22 10° 60° (ENE) 2,310 7.2 -7.7°
Maximum altitude 04:00:36 13° 86° (E) 2,115 6.3 -7.4°
Drops below altitude 10° 04:02:50 10° 112° (ESE) 2,302 6.0 -7.1°
Sets 04:06:32 0° 141° (SE) 3,220 6.3 -6.6°
